Temperature
1 1 1 1 1 0 0 1 1 1 1 1 -1 -2 -3 -3 -3 -3 -4 -4 -4 -4 -4 -4 -4 -4 -4 -4 -4 -4 -4 -4 -4 -4 -5 -5 -5 -5 -5 -5 -5 -6 -6 -6
-0 -0 -0 0 0 -0 0 0 -0 0 0 -1 -2 -2 -3 -4 -4 -4 -4 -4 -4 -5 -5 -5 -4 -4 -4 -4 -4 -5 -5 -5 -5 -5 -5 -5 -6 -6 -6 -6 -6 -6 -6 -6
-0 -1 -1 -0 -1 -1 -1 -2 -1 -0 -1 -3 -3 -4 -4 -4 -4 -4 -4 -4 -5 -5 -5 -5 -5 -5 -5 -5 -5 -5 -5 -6 -6 -6 -6 -6 -6 -6 -6 -6 -6 -7 -7 -7
-2 -1 -0 0 -2 -2 -2 -3 -3 -3 -3 -4 -4 -4 -4 -4 -4 -4 -4 -5 -5 -5 -5 -5 -5 -5 -5 -6 -6 -6 -6 -6 -7 -7 -7 -7 -7 -7 -7 -7 -7 -7 -7 -7
-2 -1 -1 -1 -3 -3 -3 -3 -4 -4 -4 -5 -5 -5 -5 -4 -4 -4 -5 -5 -5 -5 -5 -6 -6 -6 -6 -6 -6 -7 -7 -7 -7 -7 -7 -7 -7 -7 -8 -8 -8 -8 -8 -8
-2 -1 -1 -1 -4 -4 -3 -3 -4 -5 -5 -6 -6 -5 -5 -4 -5 -5 -5 -5 -6 -6 -6 -6 -6 -7 -7 -7 -7 -7 -7 -7 -8 -8 -8 -8 -8 -8 -8 -8 -8 -9 -8 -8
-3 -2 -2 -4 -5 -4 -2 -2 -5 -5 -6 -7 -6 -5 -5 -5 -5 -6 -6 -6 -6 -6 -7 -7 -7 -7 -7 -7 -7 -8 -8 -8 -8 -8 -8 -8 -8 -9 -9 -9 -9 -9 -9 -9
-4 -3 -3 -6 -6 -5 -5 -5 -6 -6 -6 -6 -6 -6 -6 -6 -6 -6 -6 -7 -7 -7 -7 -8 -8 -8 -8 -8 -8 -8 -8 -8 -8 -8 -9 -9 -9 -9 -9 -9 -9 -9 -9 -9
-4 -4 -6 -7 -6 -6 -6 -6 -6 -6 -6 -6 -7 -7 -7 -7 -7 -7 -7 -7 -8 -8 -8 -8 -8 -9 -9 -9 -9 -9 -9 -9 -9 -9 -9 -9 -9 -9 -9 -10 -10 -10 -10 -10
-7 -7 -7 -7 -6 -6 -6 -6 -7 -7 -7 -7 -7 -8 -8 -8 -8 -8 -8 -8 -8 -8 -9 -9 -9 -9 -9 -9 -9 -9 -9 -9 -9 -9 -9 -9 -10 -10 -10 -10 -10 -10 -10 -10
-8 -8 -8 -7 -7 -7 -7 -7 -7 -8 -8 -8 -8 -8 -8 -8 -8 -9 -9 -9 -9 -9 -9 -9 -9 -9 -10 -10 -10 -10 -10 -10 -10 -10 -10 -10 -10 -10 -10 -10 -11 -11 -10 -10
-7 -8 -8 -8 -7 -8 -8 -8 -8 -8 -8 -8 -8 -9 -9 -9 -9 -9 -9 -9 -9 -10 -9 -10 -10 -10 -10 -10 -10 -10 -10 -10 -10 -10 -10 -10 -10 -10 -10 -11 -11 -11 -11 -11
-8 -8 -8 -8 -9 -9 -9 -9 -9 -9 -9 -9 -9 -9 -9 -9 -9 -9 -10 -10 -10 -10 -10 -10 -10 -10 -10 -10 -11 -11 -11 -10 -11 -11 -11 -11 -11 -11 -11 -10 -11 -11 -11 -11
-9 -9 -9 -9 -10 -9 -9 -9 -9 -9 -9 -9 -10 -10 -10 -10 -10 -10 -10 -10 -10 -10 -10 -10 -10 -10 -11 -11 -11 -11 -11 -11 -11 -11 -11 -11 -11 -11 -11 -11 -11 -11 -11 -11
-10 -10 -10 -10 -10 -10 -10 -10 -10 -10 -10 -10 -10 -10 -10 -10 -10 -10 -10 -10 -10 -10 -10 -11 -11 -11 -11 -11 -11 -11 -11 -11 -11 -11 -11 -11 -11 -11 -12 -12 -12 -12 -12 -12
-10 -10 -10 -10 -10 -11 -11 -11 -11 -11 -11 -11 -11 -11 -11 -11 -10 -10 -11 -11 -11 -11 -11 -11 -11 -11 -11 -11 -12 -12 -12 -11 -12 -12 -12 -12 -12 -12 -12 -12 -12 -12 -12 -12
-11 -11 -11 -11 -11 -11 -11 -11 -11 -11 -11 -11 -11 -11 -11 -11 -11 -11 -11 -11 -11 -11 -11 -11 -11 -11 -12 -12 -12 -12 -12 -12 -12 -12 -12 -12 -12 -12 -12 -12 -12 -13 -13 -13
-11 -11 -11 -11 -12 -12 -12 -12 -12 -12 -12 -12 -12 -11 -11 -11 -11 -11 -11 -11 -11 -11 -11 -12 -12 -12 -12 -12 -12 -12 -12 -12 -12 -12 -12 -12 -12 -12 -12 -12 -13 -13 -13 -13
-11 -11 -11 -11 -12 -12 -12 -12 -12 -12 -12 -12 -12 -12 -12 -12 -12 -12 -12 -12 -12 -11 -11 -12 -12 -12 -12 -12 -12 -12 -12 -12 -12 -12 -12 -12 -13 -13 -13 -13 -13 -13 -13 -13
-12 -12 -12 -12 -12 -12 -12 -12 -12 -12 -12 -12 -12 -12 -12 -12 -12 -12 -12 -12 -12 -12 -12 -12 -12 -12 -12 -12 -12 -12 -13 -13 -13 -13 -13 -13 -13 -13 -13 -13 -13 -13 -13 -13
-12 -12 -12 -12 -12 -12 -12 -13 -13 -13 -13 -13 -13 -13 -13 -13 -13 -13 -13 -13 -12 -12 -13 -13 -13 -13 -13 -13 -13 -13 -13 -13 -13 -13 -13 -13 -13 -13 -13 -13 -13 -13 -13 -14
-13 -13 -13 -13 -13 -13 -13 -13 -13 -13 -13 -13 -13 -13 -13 -13 -13 -13 -13 -13 -13 -13 -13 -13 -13 -13 -13 -13 -13 -13 -13 -13 -13 -13 -13 -13 -13 -13 -13 -13 -14 -14 -14 -14
-13 -13 -13 -13 -13 -13 -13 -13 -13 -13 -13 -13 -13 -13 -13 -13 -14 -14 -13 -13 -13 -13 -14 -14 -14 -14 -14 -14 -13 -13 -13 -13 -14 -14 -14 -14 -14 -14 -14 -14 -14 -14 -14 -14
-13 -13 -13 -13 -14 -14 -14 -14 -14 -14 -14 -14 -14 -14 -14 -14 -14 -14 -14 -14 -14 -14 -14 -14 -14 -14 -14 -14 -14 -14 -14 -14 -14 -14 -14 -14 -14 -14 -14 -14 -14 -14 -14 -14
-14 -14 -14 -14 -14 -14 -14 -14 -14 -14 -14 -14 -14 -14 -14 -14 -14 -14 -14 -14 -14 -14 -14 -14 -14 -14 -14 -14 -14 -14 -14 -14 -14 -15 -15 -15 -15 -15 -14 -14 -14 -14 -14 -14
-14 -14 -14 -15 -15 -15 -15 -15 -15 -15 -15 -15 -14 -14 -14 -15 -14 -14 -14 -14 -14 -14 -14 -14 -14 -14 -15 -15 -15 -15 -15 -15 -15 -15 -15 -15 -15 -15 -15 -15 -15 -15 -14 -14
-15 -15 -15 -15 -15 -15 -15 -15 -15 -15 -15 -15 -15 -15 -15 -15 -15 -15 -15 -15 -15 -15 -15 -15 -15 -15 -15 -15 -15 -15 -15 -15 -15 -15 -15 -15 -15 -15 -15 -15 -15 -15 -15 -15
Wind_Speed
8 7 5 8 8 8 10 10 10 11 11 10 6 5 4 2 1 1 2 2 2 2 1 1 0 0 0 1 1 1 1 1 2 2 2 2 2 3 3 3 3 3 4 4
6 5 6 8 8 9 11 9 11 11 12 6 5 2 2 3 2 3 3 3 2 2 1 1 1 1 1 1 1 1 1 1 1 1 1 2 2 3 3 3 3 3 4 5
5 4 4 7 6 7 5 6 6 11 10 4 4 4 4 4 4 4 3 3 2 2 2 2 2 1 2 2 1 1 1 1 2 2 2 3 3 3 3 3 3 4 4 5
3 2 6 6 1 3 5 6 5 5 5 4 4 4 3 3 3 3 2 2 2 2 2 1 1 1 1 1 1 1 2 2 2 2 3 3 3 3 4 3 4 4 5 5
2 4 8 5 1 1 4 6 3 6 5 4 3 4 3 1 1 2 3 3 2 2 2 1 1 1 1 1 1 1 2 3 3 3 3 3 4 4 4 3 4 5 5 5
3 4 6 4 3 3 1 5 2 2 5 3 2 2 4 1 2 2 1 0 1 1 1 1 1 1 1 2 2 3 3 3 3 3 4 4 5 4 4 4 5 5 5 5
5 6 6 3 3 1 2 5 4 2 3 2 3 5 3 2 3 2 1 1 0 1 1 1 1 1 1 2 3 4 3 3 3 4 4 4 4 3 3 4 4 4 6 6
4 5 6 2 2 2 4 4 4 3 2 2 3 3 3 3 2 2 2 2 0 0 1 1 1 1 2 3 4 3 3 3 4 3 3 3 3 3 3 3 4 5 5 5
5 4 2 0 1 3 3 4 4 3 3 2 3 3 3 3 2 2 2 1 1 0 1 1 1 2 3 4 3 3 3 4 4 4 3 3 3 4 3 3 3 4 4 5
3 4 4 3 4 5 4 4 4 3 3 3 3 3 3 3 3 3 2 1 1 0 1 2 2 3 3 3 2 2 3 4 4 3 4 3 3 3 3 4 4 5 5 5
4 5 6 5 4 6 6 4 4 4 3 3 2 3 3 3 3 3 3 2 2 2 2 3 3 3 3 2 2 2 3 4 4 4 4 4 4 4 5 5 6 6 5 5
5 5 5 7 5 5 5 5 5 4 4 3 2 3 3 4 3 3 3 2 2 2 3 3 3 3 3 2 2 2 3 4 3 3 3 3 3 4 7 7 9 9 9 8
5 6 5 6 6 6 5 6 5 4 4 4 3 3 3 3 3 3 3 3 3 3 3 3 3 4 4 3 3 3 4 4 4 4 3 3 3 3 4 6 7 8 8 9
5 4 4 5 6 6 5 5 4 4 4 3 3 3 2 3 3 3 3 3 3 3 3 3 3 4 4 3 3 4 4 5 5 4 4 4 4 4 4 4 5 5 6 8
6 4 4 5 6 6 5 4 5 5 5 5 3 3 3 3 4 5 4 3 3 3 3 3 4 5 4 3 4 4 4 3 4 4 3 3 3 3 4 4 4 5 5 6
6 4 4 5 6 7 6 5 5 6 5 5 4 4 4 4 4 4 3 3 3 4 4 4 5 5 4 3 4 3 3 6 5 3 3 3 3 3 3 4 4 4 5 5
5 6 6 7 7 7 6 6 5 6 6 5 5 5 4 4 4 4 4 3 4 4 5 5 5 5 4 4 3 3 3 4 6 4 3 3 3 3 3 3 4 4 5 6
4 5 5 6 6 7 7 7 6 6 6 6 5 4 4 4 4 5 5 4 4 4 5 5 5 5 4 4 3 3 3 3 3 3 3 3 4 3 3 4 4 5 5 6
5 5 6 6 5 5 6 6 6 6 6 5 5 5 5 4 4 5 4 4 4 5 5 5 7 4 4 4 4 2 2 3 3 3 3 4 4 3 3 4 4 4 5 5
7 6 6 6 5 5 5 6 6 6 5 5 4 5 5 5 4 4 4 4 4 4 5 5 5 4 3 4 4 2 2 3 3 3 3 3 3 4 4 4 4 4 4 5
7 7 6 6 6 6 5 5 5 6 6 5 4 5 5 5 5 4 4 5 5 5 5 6 3 3 3 3 3 1 2 3 3 3 3 3 4 4 4 4 4 4 5 5
7 6 7 6 6 6 6 5 5 6 6 6 5 5 5 5 5 4 4 4 5 7 4 3 3 4 5 4 1 2 2 3 3 3 3 4 4 4 4 4 4 5 5 5
6 6 6 6 6 6 7 6 5 5 5 6 6 6 6 5 4 4 5 4 4 6 4 3 5 6 6 2 1 1 2 3 3 3 4 4 4 4 4 5 5 5 5 5
6 6 6 5 5 5 6 7 6 5 5 5 5 5 5 4 4 3 4 6 7 7 4 5 7 7 6 2 2 2 2 3 3 3 3 4 4 4 4 4 5 5 5 6
6 5 5 5 5 5 6 7 6 6 6 5 5 5 4 3 4 4 4 4 7 7 4 5 7 7 4 2 2 2 3 3 4 3 3 3 4 4 4 4 5 5 5 5
6 5 5 5 4 5 5 5 5 5 5 5 5 5 5 4 4 4 4 4 5 7 5 4 4 5 3 3 3 3 3 4 4 4 4 4 4 4 5 5 6 5 5 6
5 5 5 5 4 4 4 4 5 5 5 5 5 5 5 5 4 4 5 4 5 5 4 4 3 3 3 3 3 4 4 4 4 4 4 4 4 4 5 6 6 6 6 6
Wind_Direction
260 272 256 248 239 217 215 219 230 252 254 266 262 254 254 255 240 184 189 179 173 171 173 160 124 181 217 198 160 152 160 197 227 228 224 241 251 255 260 260 263 263 268 272
272 270 275 270 254 229 229 235 243 260 268 279 284 264 257 251 235 230 221 212 202 195 191 203 213 248 270 251 213 166 187 234 250 237 240 251 256 259 265 267 270 271 268 270
273 308 322 269 245 216 218 224 221 242 257 283 295 270 250 240 229 227 228 220 215 220 220 228 234 240 241 254 235 200 226 249 254 254 261 265 266 265 264 265 264 268 267 266
275 356 256 257 147 193 221 244 235 252 275 269 269 285 273 226 205 229 248 244 229 218 231 244 234 246 252 269 227 221 241 254 257 256 263 270 266 264 264 264 262 264 268 264
213 249 272 291 332 179 219 261 249 248 274 300 335 349 318 236 193 235 246 242 224 212 218 208 208 228 238 268 253 241 251 257 260 262 264 266 264 265 270 266 268 264 263 260
203 227 247 283 324 309 157 282 317 258 270 293 13 298 278 307 314 299 306 255 217 186 170 191 227 207 221 262 260 260 260 261 265 263 261 259 260 265 269 265 267 272 276 269
223 238 261 311 317 48 168 280 322 290 270 244 234 245 284 317 321 319 319 316 276 170 205 221 212 202 254 261 262 269 278 275 273 267 265 262 259 261 262 268 275 274 277 277
200 228 260 356 76 174 257 311 323 311 290 261 270 294 303 314 317 326 330 337 328 228 276 267 221 219 263 271 281 289 287 286 279 275 273 274 258 264 263 260 267 273 277 282
209 226 311 109 226 291 321 307 309 310 304 278 279 289 301 307 306 308 304 300 298 240 286 291 258 236 260 283 294 295 291 287 286 284 280 275 256 259 265 255 260 272 272 278
274 286 300 295 312 319 318 303 309 312 308 292 271 274 289 298 307 308 301 291 300 263 281 289 288 287 276 285 290 284 283 286 286 282 281 278 270 261 259 259 262 271 272 273
276 297 314 305 311 314 323 329 324 321 311 289 260 276 281 288 291 291 294 300 286 259 269 280 289 295 299 293 280 285 285 282 283 278 274 276 274 263 264 254 253 264 263 264
269 289 286 294 319 332 327 319 314 317 320 319 284 276 284 285 288 288 288 293 286 281 281 286 292 295 296 288 271 267 281 285 281 275 273 276 280 290 284 283 286 288 290 291
284 304 291 297 319 329 320 317 317 312 301 307 304 287 282 291 295 293 289 287 276 277 279 282 286 289 290 288 277 267 271 280 279 275 274 275 277 283 297 304 300 300 300 302
317 321 309 317 317 328 327 323 326 330 326 316 309 312 307 307 306 298 289 286 283 283 282 278 279 281 282 279 277 275 276 279 279 271 269 268 271 275 278 288 301 306 306 306
330 319 293 306 320 329 332 338 346 341 337 335 330 319 312 303 297 296 297 300 299 293 289 287 283 283 282 277 278 275 274 275 275 273 272 271 273 275 276 280 285 296 305 308
322 329 329 327 326 329 335 337 328 320 321 318 317 313 307 298 294 297 299 294 286 282 284 282 279 280 280 275 279 276 272 281 285 283 280 278 274 272 277 281 286 290 293 298
335 331 330 327 325 324 321 314 306 304 306 307 307 310 309 307 307 308 308 301 285 278 278 277 282 286 281 272 265 268 272 280 286 290 280 275 274 272 273 276 279 284 288 292
304 297 298 300 305 311 316 316 311 309 304 302 308 309 303 297 295 298 303 305 304 298 292 289 290 291 284 275 266 262 264 272 275 276 280 278 276 272 273 274 277 283 291 298
329 321 318 316 310 305 306 310 314 314 312 312 308 302 298 295 292 294 300 299 294 295 297 293 297 303 289 277 280 257 261 268 276 279 279 283 290 284 275 274 278 282 288 294
334 331 327 325 325 318 312 315 318 317 316 315 312 312 313 311 308 305 303 292 281 283 287 292 296 293 284 272 276 254 255 260 267 274 277 276 278 281 279 278 281 285 289 290
330 330 331 331 329 328 323 320 321 320 321 322 317 311 308 308 307 303 302 303 306 304 299 300 307 295 285 282 280 255 255 263 268 268 270 272 276 278 280 281 283 285 286 287
329 331 330 331 332 330 330 328 323 321 323 323 321 317 314 312 313 311 296 288 301 312 319 303 297 296 300 301 278 266 266 269 270 271 270 271 273 276 279 282 284 285 286 286
325 327 327 327 327 323 324 328 327 323 320 319 319 318 314 308 307 307 311 314 313 315 324 309 307 311 319 330 310 286 280 278 278 277 277 276 275 276 278 282 284 285 285 287
330 330 326 325 329 332 332 331 329 325 318 313 314 317 319 320 319 313 307 314 323 324 321 316 322 323 330 341 318 301 291 286 283 281 281 281 280 279 278 281 284 285 284 285
329 329 330 336 338 333 326 326 328 331 332 329 328 330 328 321 314 319 321 320 325 333 331 326 329 334 342 334 320 305 296 287 285 286 281 285 284 283 282 282 282 283 284 283
331 331 328 324 320 319 321 325 327 328 331 330 332 333 335 336 332 330 332 334 332 333 333 326 327 331 334 326 316 308 300 300 304 303 294 289 287 286 285 284 284 282 281 280
334 335 335 335 333 328 325 324 322 323 326 325 324 329 335 337 337 337 338 338 337 334 330 330 331 329 324 320 317 312 307 302 297 294 294 290 288 286 286 286 286 285 283 281
Height
1472 1470 1470 1468 1468 1470 1470 1467 1466 1459 1458 1454 1456 1457 1457 1457 1457 1458 1458 1458 1458 1459 1460 1461 1462 1463 1464 1464 1465 1465 1465 1466 1466 1467 1467 1467 1467 1467 1466 1466 1466 1466 1465 1464
1472 1469 1469 1466 1464 1464 1463 1463 1461 1458 1455 1453 1454 1455 1455 1455 1455 1455 1455 1456 1456 1457 1458 1459 1459 1460 1461 1461 1462 1462 1462 1463 1463 1463 1463 1463 1463 1462 1462 1462 1461 1461 1460 1460
1471 1471 1467 1464 1460 1460 1460 1460 1459 1457 1453 1453 1453 1453 1452 1452 1452 1452 1453 1453 1454 1455 1456 1456 1457 1458 1458 1459 1459 1459 1459 1459 1459 1459 1459 1459 1458 1458 1457 1457 1456 1456 1455 1455
1474 1473 1469 1455 1456 1456 1457 1456 1457 1455 1452 1452 1451 1450 1450 1450 1450 1451 1451 1452 1452 1453 1453 1454 1455 1456 1456 1456 1456 1456 1456 1456 1456 1456 1455 1455 1454 1454 1453 1452 1452 1451 1450 1450
1474 1471 1462 1456 1456 1457 1457 1454 1453 1452 1451 1451 1450 1449 1448 1448 1449 1450 1450 1450 1450 1451 1451 1452 1452 1453 1453 1453 1453 1453 1453 1453 1452 1452 1451 1451 1450 1449 1449 1448 1447 1446 1446 1445
1472 1467 1460 1455 1457 1454 1456 1454 1451 1451 1450 1450 1450 1452 1448 1447 1447 1448 1448 1448 1448 1448 1448 1448 1449 1449 1449 1449 1449 1449 1449 1449 1449 1448 1447 1446 1446 1445 1444 1443 1443 1442 1441 1441
1471 1467 1460 1460 1457 1455 1459 1454 1451 1450 1449 1449 1449 1448 1447 1445 1445 1445 1445 1445 1445 1445 1445 1445 1446 1446 1446 1446 1446 1446 1446 1445 1445 1444 1443 1443 1442 1441 1440 1439 1438 1438 1437 1436
1469 1466 1462 1460 1459 1460 1457 1453 1451 1449 1448 1447 1446 1445 1444 1443 1443 1442 1442 1442 1442 1442 1442 1442 1443 1443 1442 1442 1443 1443 1442 1441 1441 1440 1440 1439 1438 1437 1436 1435 1434 1433 1432 1431
1465 1463 1461 1459 1458 1456 1454 1452 1449 1448 1447 1445 1444 1443 1442 1441 1440 1440 1440 1440 1439 1439 1439 1439 1440 1440 1439 1439 1439 1439 1438 1438 1437 1437 1436 1435 1434 1433 1432 1431 1430 1429 1428 1427
1465 1460 1459 1458 1456 1454 1453 1450 1448 1447 1445 1444 1442 1441 1440 1439 1438 1438 1437 1437 1437 1436 1436 1436 1436 1437 1436 1436 1436 1435 1434 1434 1433 1433 1432 1431 1430 1430 1429 1428 1427 1426 1425 1424
1465 1461 1458 1455 1454 1453 1451 1448 1446 1445 1444 1442 1440 1439 1438 1437 1436 1436 1435 1435 1434 1433 1433 1433 1433 1433 1433 1433 1432 1431 1431 1430 1429 1429 1428 1427 1427 1426 1425 1425 1424 1423 1422 1421
1463 1461 1460 1456 1453 1452 1449 1447 1445 1443 1441 1440 1439 1437 1436 1435 1434 1433 1433 1432 1431 1431 1430 1430 1430 1430 1430 1429 1429 1428 1427 1426 1426 1425 1424 1424 1423 1422 1421 1421 1420 1419 1418 1418
1463 1460 1458 1455 1452 1450 1448 1445 1444 1441 1439 1438 1437 1435 1434 1433 1432 1431 1430 1429 1429 1428 1427 1427 1427 1427 1427 1426 1426 1425 1424 1423 1422 1422 1421 1420 1419 1418 1417 1416 1416 1415 1414 1413
1460 1458 1454 1452 1450 1448 1446 1443 1441 1439 1437 1436 1434 1433 1432 1431 1430 1429 1428 1427 1426 1426 1425 1424 1424 1424 1424 1423 1423 1422 1421 1420 1419 1419 1418 1417 1416 1415 1414 1412 1411 1410 1410 1409
1457 1456 1454 1451 1448 1446 1444 1441 1439 1437 1435 1433 1432 1431 1429 1428 1427 1426 1425 1425 1424 1423 1422 1421 1421 1421 1420 1420 1419 1418 1418 1417 1416 1416 1415 1414 1413 1412 1411 1409 1408 1406 1405 1405
1455 1453 1451 1449 1446 1444 1441 1439 1437 1435 1433 1431 1430 1428 1427 1426 1425 1424 1423 1422 1421 1419 1419 1418 1418 1417 1417 1417 1416 1415 1415 1414 1413 1413 1412 1411 1410 1408 1407 1406 1405 1403 1402 1401
1454 1451 1449 1447 1444 1442 1440 1438 1436 1433 1431 1429 1428 1426 1425 1423 1422 1421 1420 1420 1419 1417 1417 1416 1415 1414 1414 1413 1413 1412 1411 1411 1410 1410 1408 1407 1406 1405 1404 1403 1401 1400 1399 1398
1454 1451 1449 1447 1444 1441 1438 1436 1434 1432 1429 1427 1425 1424 1422 1421 1419 1418 1418 1417 1416 1415 1414 1413 1412 1411 1410 1410 1410 1409 1408 1408 1407 1406 1405 1404 1403 1402 1401 1400 1398 1397 1396 1395
1451 1449 1447 1445 1443 1440 1437 1434 1432 1430 1428 1426 1424 1422 1420 1419 1418 1416 1415 1414 1412 1411 1411 1410 1409 1408 1407 1407 1407 1406 1405 1404 1404 1403 1402 1401 1400 1399 1398 1396 1395 1394 1393 1391
1449 1447 1445 1443 1440 1438 1435 1433 1430 1428 1426 1424 1422 1420 1418 1417 1416 1414 1413 1411 1410 1409 1408 1407 1406 1405 1404 1404 1403 1403 1402 1401 1400 1399 1399 1398 1397 1396 1394 1393 1392 1391 1389 1388
1447 1445 1443 1441 1438 1436 1434 1431 1429 1426 1425 1423 1421 1418 1417 1415 1414 1412 1410 1408 1408 1407 1406 1404 1403 1402 1401 1401 1400 1399 1399 1398 1397 1396 1395 1394 1393 1392 1391 1390 1389 1387 1386 1384
1446 1444 1441 1439 1437 1434 1432 1430 1428 1425 1423 1421 1419 1417 1415 1413 1411 1410 1408 1407 1406 1405 1403 1402 1401 1400 1399 1398 1397 1396 1396 1395 1394 1393 1392 1391 1390 1389 1388 1386 1385 1384 1382 1381
1446 1443 1441 1438 1436 1433 1431 1429 1427 1424 1422 1420 1418 1416 1414 1412 1410 1408 1406 1405 1404 1402 1401 1399 1398 1397 1397 1395 1394 1393 1393 1392 1391 1390 1389 1388 1387 1386 1384 1383 1382 1381 1379 1377
1445 1442 1440 1438 1435 1433 1430 1428 1426 1424 1422 1419 1417 1415 1413 1410 1408 1407 1405 1403 1402 1400 1399 1397 1396 1395 1394 1393 1392 1391 1390 1389 1388 1387 1386 1385 1384 1382 1381 1380 1379 1377 1376 1374
1444 1442 1439 1437 1434 1432 1430 1427 1425 1423 1420 1418 1416 1414 1412 1410 1408 1406 1404 1402 1400 1399 1397 1395 1394 1393 1392 1390 1389 1388 1387 1386 1385 1384 1383 1381 1380 1379 1378 1377 1375 1374 1372 1371
1444 1441 1439 1436 1434 1432 1429 1427 1424 1422 1419 1417 1415 1413 1411 1409 1407 1405 1403 1401 1399 1398 1396 1394 1392 1391 1390 1388 1387 1386 1384 1383 1382 1381 1380 1379 1377 1376 1375 1374 1372 1371 1369 1367
1443 1441 1438 1436 1433 1431 1429 1426 1424 1421 1419 1417 1414 1412 1410 1408 1406 1404 1402 1400 1398 1396 1395 1393 1391 1390 1388 1386 1385 1384 1382 1381 1380 1378 1377 1376 1375 1373 1372 1371 1369 1368 1366 1364